Showing default

COSMOS 209, 3158

Orbit data source: Space-Track

COSMOS 209, 3158 is a payload satellite owned by TSKBM (CIS) in LEO that was launched on Fri, 22 Mar 1968 UTC via a TSIKLON-2A launch vehicle from the Tyuratam Missile And Space Complex (TTMTR). Payload-class satellites include a variety of spacecraft equipped with specific instruments for various scientific and technological missions. These include communications satellites like Starlink; space stations such as the ISS; scientific satellites like the Hubble; Earth observation satellites from companies like Planet Labs, Umbra, and HawkEye 360; GPS; miniature CubeSats for education and research; and military/defense satellites.

Loading next visibility...
Identifier
3158, 1968-023A
Orbit
LEO
Country
Flag of CISCIS
Related business
Manufacturer
TSKBM/KB1
Mission
Spacecraft
Bus & Motor
US-A REACTOR, Unknown motor
Mass
3,800 kg wet, 1,140 kg dry
Launch date (UTC)
1968-03-22 (58 years ago)
Launch vehicle
TSIKLON-2A
Launch site
Tyuratam Missile And Space Complex (TTMTR)
Object type
Payload
Rocket body
Debris
Shape & HBR
Unknown
Radar Cross Section
Large (>1 m²)

Expand to show TLE details & history
Last TLE update: 14 hours ago

TLE from 14 hours ago
0 COSMOS 209
1 03158U 68023A   26125.77240673 -.00000045  00000-0  30855-4 0  9993
2 03158  65.3318 305.7515 0050523 262.3478  97.1853 13.97931760965085
Epoch: 2026-05-05T18:32Z
TLE epoch observation values (Epoch: 2026-05-05T18:32:15.941Z)
Latitude
0.00003°
Longitude
164.04264°
Altitude
907.717 km
Speed
7.396 km/s
True Right ascension
20h 23m 00s
True Declination
0° 00' 00"
Sunlit
Object was in daylight at epoch
Visualization orbit readout
Latitude
Unknown
Longitude
Unknown
Altitude
Unknown
Speed
Unknown
Apparent Right ascension
Unknown
Apparent Declination
Unknown
Sunlit
N/A
Visualization observer readout
Local Sidereal Time
16:34:49
Azimuth
Unknown
Elevation
Unknown
Doppler factor
Unknown
Orbital elements
Apogee altitude
936.295 km
Perigee altitude
862.757 km
Semi-major axis
7,277.663 km
Eccentricity
0.00505
Inclination
65.3318°
RAAN
305.7515°
Arg. of periapsis
262.3478°
True anomaly
97.75924°
Mean anomaly
97.1853°
Eccentric anomaly
97.47232°
Mean motion
3.49587 °/min
Orbital period
102.98 mins
BSTAR
0.000030855
Loading maneuver chart data...
Computing Atmospheric mass density...
Loading historical data...
Loading historical data...
Loading historical data...
Loading historical data...
Loading historical data...
Loading historical data...
Loading historical data...

Documentation

Showing up to 5 results
|